Moses Lake, WA
on Wednesday, February 13, 2013

Wednesday
Previous Day Next Day
Daily Summary
 ActualAverageRecord
Temperature
Mean Temperature °F 35°F  
Max Temperature 56°F 43°F 56°F (2013)
Min Temperature 32°F 27°F 14°F (1985)
Degree Days
Heating Degree Days 21 30  
Month to date heating degree days 374 409  
Since 1 July heating degree days 3728 4083  
Cooling Degree Days 0 0  
Month to date cooling degree days 0 0  
Year to date cooling degree days 0 0  
Moisture
Dew Point 28°F   
Average Humidity 53    
Maximum Humidity 70    
Minimum Humidity 35    
Precipitation
Precipitation 0.00 in 0.03 in 0.11 in (1984)
Month to date precipitation 0.00 0.43  
Year to date precipitation 0.28 1.57  
Wind
Wind Speed 7 mph   
Max Wind Speed 22 mph   
Max Gust Speed 26 mph   
Visibility 10 miles   
Events     

Key: T is trace of precipitation, MM is missing value
Source: NWS Daily Summary
Time(PST)TemperatureDew PointHumidity Pressure Visibility Wind DirectionWind SpeedGust SpeedPrecipitationEvents Conditions
12:52 AM 46.9°F 33.1°F 59% 30.17 in 10.0 miles SW 19.6 mph 25.3 mph N/A   Clear
1:52 AM 46.0°F 34.0°F 63% 30.17 in 10.0 miles SSW 13.8 mph 23.0 mph N/A   Clear
2:52 AM 43.0°F 33.1°F 68% 30.16 in 10.0 miles SSE 12.7 mph - N/A   Clear
3:52 AM 46.0°F 30.9°F 56% 30.30 in 10.0 miles SW 15.0 mph - N/A   Clear
4:52 AM 44.1°F 30.9°F 60% 30.18 in 10.0 miles SW 11.5 mph - N/A   Clear
5:52 AM 42.1°F 30.0°F 62% 30.19 in 10.0 miles SW 6.9 mph - N/A   Clear
6:52 AM 41.0°F 28.9°F 62% 30.20 in 10.0 miles WSW 10.4 mph - N/A   Clear
7:52 AM 39.0°F 28.9°F 67% 30.22 in 10.0 miles WSW 9.2 mph - N/A   Clear
8:52 AM 45.0°F 30.0°F 56% 30.24 in 10.0 miles WSW 4.6 mph - N/A   Clear
9:52 AM 46.9°F 30.9°F 54% 30.40 in 10.0 miles Calm Calm - N/A   Clear
10:52 AM 52.0°F 30.9°F 45% 30.26 in 10.0 miles West 5.8 mph - N/A   Clear
11:52 AM 55.9°F 30.0°F 37% 30.26 in 10.0 miles WNW 8.1 mph - N/A   Clear
12:52 PM 54.0°F 27.0°F 35% 30.25 in 10.0 miles WNW 9.2 mph - N/A   Clear
1:52 PM 53.1°F 28.0°F 38% 30.25 in 10.0 miles NNW 8.1 mph - N/A   Clear
2:52 PM 50.0°F 28.9°F 44% 30.41 in 10.0 miles NNW 10.4 mph - N/A   Clear
3:52 PM 48.9°F 28.9°F 46% 30.27 in 10.0 miles Calm Calm - N/A   Clear
4:52 PM 48.9°F 27.0°F 43% 30.43 in 10.0 miles West 3.5 mph - N/A   Clear
5:52 PM 44.1°F 26.1°F 49% 30.29 in 10.0 miles Calm Calm - N/A   Clear
6:52 PM 41.0°F 24.1°F 51% 30.31 in 10.0 miles West 4.6 mph - N/A   Clear
7:52 PM 36.0°F 24.1°F 62% 30.33 in 10.0 miles WNW 4.6 mph - N/A   Clear
8:52 PM 36.0°F 23.0°F 59% 30.35 in 10.0 miles SE 3.5 mph - N/A   Clear
9:52 PM 37.0°F 24.1°F 59% 30.36 in 10.0 miles SW 4.6 mph - N/A   Clear
10:52 PM 36.0°F 25.0°F 64% 30.38 in 10.0 miles SW 3.5 mph - N/A   Clear
11:52 PM 32.0°F 23.0°F 69% 30.39 in 10.0 miles Calm Calm - N/A   Clear
Moon Phase
Feb. 13 Feb. 17 Feb. 25 Mar. 04 Mar. 11
Sunrise:07:04 AM (PST) Moon Rise:08:18 AM (PST)2/13
Sunset:05:18 PM (PST) Moon Set:09:47 PM (PST)2/13

Copyright © 2014 The Weather Underground, Inc.